Location: Shenandoah County Park
(38.9356°N, 78.4524°W)
Time: 01:50:09
(UTC-05:00)

Envisat - Visible Passes

Search period start: 08 February 2023 00:00
Search period end: 18 February 2023 00:00
Orbit: 763 x 765 km, 98.2° (Epoch: 07 February)

Date Brightness Start Highest point End Pass type
(mag) Time Alt. Az. Time Alt. Az. Time Alt. Az.
08 Feb 5.4 04:20:13 10° NNE 04:20:45 13° NNE 04:20:45 13° NNE visible
09 Feb 5.1 05:22:57 10° NNW 05:23:37 13° NNW 05:23:37 13° NNW visible
10 Feb 5.1 04:45:16 10° N 04:46:18 16° N 04:46:18 16° N visible
11 Feb 5.4 04:08:09 10° NNE 04:08:58 15° NNE 04:08:58 15° NNE visible
11 Feb 5.1 05:48:58 10° NNW 05:49:10 11° NNW 05:49:10 11° NNW visible
12 Feb 5.9 03:31:39 10° NE 03:31:39 10° NE 03:31:39 10° NE visible
12 Feb 4.9 05:10:34 10° N 05:11:51 17° NNW 05:11:51 17° NNW visible
13 Feb 4.9 04:33:05 10° N 04:34:31 19° N 04:34:31 19° N visible
14 Feb 5.4 03:56:09 10° NNE 03:57:12 16° NNE 03:57:12 16° NNE visible
14 Feb 4.9 05:36:15 10° NNW 05:37:24 14° NNW 05:37:24 14° NNW visible
15 Feb 4.6 04:58:16 10° N 05:00:05 21° NNW 05:00:05 21° NNW visible
16 Feb 4.8 04:20:57 10° NNE 04:22:45 23° NNE 04:22:45 23° NNE visible
17 Feb 5.4 03:44:12 10° NNE 03:45:26 17° NE 03:45:26 17° NE visible
17 Feb 4.6 05:23:43 10° NNW 05:25:38 18° NNW 05:25:38 18° NNW visible
